2023/04/28 00:00:00, 5.3, 8.0
2023/04/28 00:10:00,18.9, 8.0
2023/04/28 00:20:00,19.8, 7.8
2023/04/28 00:30:00,22.3, 7.8
2023/04/28 00:40:00,22.9, 7.5
2023/04/28 00:50:00,23.0, 7.4
2023/04/28 01:00:00,22.6, 7.1
2023/04/28 01:10:00,23.3, 7.0
2023/04/28 01:20:00,24.4, 7.0
2023/04/28 01:30:00,24.8, 6.7
2023/04/28 01:40:00,24.9, 6.7
2023/04/28 01:50:00,25.4, 6.7
2023/04/28 02:00:00,25.0, 6.6
2023/04/28 02:10:00,25.1, 6.7
2023/04/28 02:20:00,---, 6.5
2023/04/28 02:30:00, 5.6, 6.4
2023/04/28 02:40:00, 3.9, 6.4
2023/04/28 02:50:00, 2.1, 6.1
2023/04/28 03:00:00, 5.2, 6.3
2023/04/28 03:10:00, 5.5, 6.1
2023/04/28 03:20:00, 3.4, 6.0
2023/04/28 03:30:00, 0.2, 6.0
2023/04/28 03:40:00, 0.1, 6.0
2023/04/28 03:50:00, 0.2, 6.0
2023/04/28 04:00:00, 0.2, 5.9
2023/04/28 04:10:00, 0.1, 5.6
2023/04/28 04:20:00, 0.1, 5.6
2023/04/28 04:30:00, 0.2, 5.6
2023/04/28 04:40:00, 0.2, 5.7
2023/04/28 04:50:00, 0.2, 5.7
2023/04/28 05:00:00, 0.1, 5.5
2023/04/28 05:10:00, 0.1, 5.4
2023/04/28 05:20:00, 0.2, 5.5
2023/04/28 05:30:00, 0.1, 5.6
2023/04/28 05:40:00, 0.1, 5.6
2023/04/28 05:50:00, 0.0, 5.6
2023/04/28 06:00:00, 0.0, 5.6
2023/04/28 06:10:00, 0.9, 5.6
2023/04/28 06:20:00, 0.0, 6.0
2023/04/28 06:30:00, 0.0, 6.2
2023/04/28 06:40:00, 0.1, 6.4
2023/04/28 06:50:00, 0.1, 6.8
2023/04/28 07:00:00, 0.1, 7.5
2023/04/28 07:10:00, 0.1, 8.3
2023/04/28 07:20:00, 0.1, 8.9
2023/04/28 07:30:00, 0.0, 9.7
2023/04/28 07:40:00, 0.1, 9.7
2023/04/28 07:50:00, 0.0,10.7
2023/04/28 08:00:00, 0.0,11.6
2023/04/28 08:10:00, 0.1,12.4
2023/04/28 08:20:00, 0.1,12.8
2023/04/28 08:30:00, 0.0,12.4
2023/04/28 08:40:00, 0.2,14.1
2023/04/28 08:50:00, 0.2,14.5
2023/04/28 09:00:00, 0.1,14.4
2023/04/28 09:10:00, 0.2,15.3
2023/04/28 09:20:00, 0.1,16.2
2023/04/28 09:30:00, 0.2,17.5
2023/04/28 09:40:00, 0.6,19.4
2023/04/28 09:50:00, 0.6,19.6
2023/04/28 10:00:00, 0.4,20.6
2023/04/28 10:10:00, 0.8,20.3
2023/04/28 10:20:00, 2.0,20.3
2023/04/28 10:30:00, 3.7,20.4
2023/04/28 10:40:00, 2.8,20.3
2023/04/28 10:50:00, 1.3,21.5
2023/04/28 11:00:00, 5.2,21.2
2023/04/28 11:10:00, 6.6,22.2
2023/04/28 11:20:00, 8.8,22.1
2023/04/28 11:30:00, 7.5,22.3
2023/04/28 11:40:00, 6.1,22.4
2023/04/28 11:50:00, 8.2,23.0
2023/04/28 12:00:00,11.2,22.2
2023/04/28 12:10:00, 7.2,23.0
2023/04/28 12:20:00,12.3,23.3
2023/04/28 12:30:00, 8.5,24.0
2023/04/28 12:40:00, 5.3,23.5
2023/04/28 12:50:00, 4.6,24.4
2023/04/28 13:00:00, 2.2,24.2
2023/04/28 13:10:00, 7.1,24.0
2023/04/28 13:20:00, 1.6,23.6
2023/04/28 13:30:00, 0.0,24.6
2023/04/28 13:40:00, 0.0,24.7
2023/04/28 13:50:00, 0.0,24.7
2023/04/28 14:00:00, 0.0,24.7
2023/04/28 14:10:00, 0.1,23.0
2023/04/28 14:20:00, 0.1,23.9
2023/04/28 14:30:00, 0.0,23.5
2023/04/28 14:40:00, 0.0,24.1
2023/04/28 14:50:00, 0.0,23.9
2023/04/28 15:00:00, 0.0,24.4
2023/04/28 15:10:00, 0.0,24.1
2023/04/28 15:20:00, 0.0,25.0
2023/04/28 15:30:00, 0.0,24.5
2023/04/28 15:40:00, 0.0,24.6
2023/04/28 15:50:00, 0.0,24.5
2023/04/28 16:00:00, 0.0,24.6
2023/04/28 16:10:00, 0.0,24.3
2023/04/28 16:20:00, 0.0,24.6
2023/04/28 16:30:00, 0.0,24.7
2023/04/28 16:40:00, 0.0,24.7
2023/04/28 16:50:00, 0.0,24.8
2023/04/28 17:00:00, 0.0,22.8
2023/04/28 17:10:00, 0.0,22.3
2023/04/28 17:20:00, 0.6,20.9
2023/04/28 17:30:00, 0.6,20.5
2023/04/28 17:40:00, 0.5,18.7
2023/04/28 17:50:00, 1.0,18.1
2023/04/28 18:00:00, 0.7,17.6
2023/04/28 18:10:00, 1.1,16.9
2023/04/28 18:20:00, 0.9,16.7
2023/04/28 18:30:00, 0.5,16.1
2023/04/28 18:40:00, 0.9,15.6
2023/04/28 18:50:00, 1.3,15.0
2023/04/28 19:00:00, 1.3,14.6
2023/04/28 19:10:00, 1.4,14.1
2023/04/28 19:20:00, 1.5,14.0
2023/04/28 19:30:00, 1.7,13.6
2023/04/28 19:40:00, 1.9,13.2
2023/04/28 19:50:00, 1.1,13.1
2023/04/28 20:00:00, 1.1,12.8
2023/04/28 20:10:00, 0.6,12.6
2023/04/28 20:20:00, 0.4,12.3
2023/04/28 20:30:00, 0.2,12.0
2023/04/28 20:40:00, 0.1,12.2
2023/04/28 20:50:00, 0.1,11.6
2023/04/28 21:00:00, 0.1,11.4
2023/04/28 21:10:00, 0.1,11.4
2023/04/28 21:20:00, 0.0,11.5
2023/04/28 21:30:00, 0.0,11.4
2023/04/28 21:40:00, 0.1,11.6
2023/04/28 21:50:00, 0.1,11.1
2023/04/28 22:00:00, 0.1,10.6
2023/04/28 22:10:00, 0.0,10.6
2023/04/28 22:20:00, 0.0,10.7
2023/04/28 22:30:00, 0.0,10.5
2023/04/28 22:40:00, 0.0,10.4
2023/04/28 22:50:00, 0.0,11.1
2023/04/28 23:00:00, 0.1,12.4
2023/04/28 23:10:00, 0.1,12.7
2023/04/28 23:20:00, 0.1,12.8
2023/04/28 23:30:00, 0.1,13.1
2023/04/28 23:40:00, 0.2,13.2
2023/04/28 23:50:00, 0.3,13.2
